Location: Chemnitz
(49.5500°N, 11.5830°E)
Time: 00:02:54
(UTC+01:00)

ISS - Pass Details

Date: 07 January 2018
Orbit: 402 x 407 km, 51.6° (Epoch: 20 January)

Event Time Altitude Azimuth Distance (km) Brightness Sun altitude
Exits shadow 07:29:10 - 287° (WNW) 1,619 -1.4 -6.4°
Reaches altitude 10° 07:29:32 10° 287° (WNW) 1,469 -1.6 -6.3°
Maximum altitude 07:32:49 80° 202° (SSW) 418 -3.7 -5.8°
Drops below altitude 10° 07:36:07 10° 114° (ESE) 1,467 0.9 -5.4°
Sets 07:38:12 0° 113° (ESE) 2,326 2.7 -5.1°
